sat.trackr.live / text

‹ back to catalog

ZHUQUE-2E DEB

NORAD 69630 · 2026-128E

DEBRIS UNKNOWN UNKNOWN

§ Identity

Operator
Country
PRC
Launch date
2026-06-09
Launch site
JSC
Launch vehicle
Mass (kg)
RCS (m²)

External: N2YO · Heavens-Above · Gunter

§ Orbital elements

Epoch: 2026-07-08T12:20:49.290432Z

Period
92.39 min
Inclination
54.5281°
Eccentricity
0.0078474
Mean motion
15.58675162 rev/d
Perigee alt
338.4 km
Apogee alt
444.6 km
Semi-major
6,769.6 km
B*
1.5844e-4
RAAN
204.0708°
Arg perigee
30.4860°
Mean anomaly
330.0698°
Rev number
450

§ Raw data

ZHUQUE-2E DEB1 69630U 26128E   26189.51445938  .00013780  00000+0  15844-3 0  99912 69630  54.5281 204.0708 0078474  30.4860 330.0698 15.58675162  4507

JSON: /api/v1/satellites/69630 · /tle

For live sub-satellite position, see the globe view (requires WebGL).

§ Visibility from observer

Set your observer location to see the next 7 days of passes ≥ 10°. The values pass through the URL so the page stays shareable.

No JS? Fill the form by hand. The geolocation button needs JavaScript.